Regional Weather Roundup
Issued by NWS

Home | Current Version | Previous Version | Text Only | Print | Product List | Glossary On
Versions: 1 2 3 4 5 6 7 8 9 10 11 12 13 14 15 16 17 18 19 20 21 22 23 24 25 26 27 28 29 30 31 32 33 34 35 36 37 38 39 40 41 42 43 44 45 46 47 48 49 50
000
ASUS44 KOUN 230510
RWROK

WEATHER ROUNDUP FOR OKLAHOMA
NATIONAL WEATHER SERVICE NORMAN OK
1200 AM CDT TUE SEP 23 2014

NOTE: "FAIR" INDICATES FEW OR NO CLOUDS BELOW 12,000 FEET WITH NO
      SIGNIFICANT WEATHER AND/OR OBSTRUCTIONS TO VISIBILITY.

OKZ001>007-009>012-014-015-017-230600-
NORTHWEST OKLAHOMA AND THE PANHANDLE

CITY           SKY/WX    TMP DP  RH WIND       PRES   REMARKS
GAGE           PTCLDY    66  46  48 SE14      30.17F
ENID/WOODRING  PTCLDY    61  50  67 SE5       30.18S
$$

OKZ016-021>023-033>039-044-045-230600-
SOUTHWEST OKLAHOMA

CITY           SKY/WX    TMP DP  RH WIND       PRES   REMARKS
LAWTON/REGL    PTCLDY    65  53  65 E6        30.17F
FREDERICK      PTCLDY    67  54  63 E9        30.13F
CLINTON        PTCLDY    67  47  48 SE7       30.20S
HOBART         PTCLDY    67  48  50 SE8       30.18F
ALTUS AFB      CLEAR     65  53  66 E8        30.17F
$$

OKZ018>020-024>031-230600-
CENTRAL OKLAHOMA

CITY           SKY/WX    TMP DP  RH WIND       PRES   REMARKS
OKLAHOMA CITY  MOCLDY    64  50  60 SE9       30.19S
OKC/WILEY POST PTCLDY    67  49  52 SE8       30.18F
OKC/TINKER AFB CLEAR     59  50  71 E6        30.19S
STILLWATER     CLEAR     58  49  72 E7        30.19F
GUTHRIE        PTCLDY    62  49  62 SE8       30.19S
$$

OKZ008-013-054>072-230600-
NORTHEAST OKLAHOMA

CITY           SKY/WX    TMP DP  RH WIND       PRES   REMARKS
TULSA          PTCLDY    61  54  77 E5        30.19F
TULSA/JONES    CLEAR     57  54  89 CALM      30.19F
PONCA CITY     PTCLDY    63  51  65 SE9       30.19S
BARTLESVILLE   CLEAR     50  50 100 CALM      30.22S
MUSKOGEE       CLEAR     57  54  89 CALM      30.21S
$$

OKZ032-040>043-046>053-073>077-230600-
SOUTH CENTRAL/SOUTHEAST OKLAHOMA

CITY           SKY/WX    TMP DP  RH WIND       PRES   REMARKS
ARDMORE/DWNTWN PTCLDY    63  50  63 CALM      30.18S
MCALESTER      CLEAR     60  54  80 E5        30.20F
$$



USA.gov is the U.S. government's official web portal to all federal, state and local government web resources and services.